Flag for Ireland Weather past 2 weeks in Waterford, Ireland

Now
75 °F

Broken clouds.


Feels Like: 77 °F
Forecast: 57 / 75 °F
Wind: 5 mph from East

Location: Cork Airport

Current Time: Jul 24, 2014 at 2:51:57 PM

Latest Report: Jul 24, 2014 at 2:30 PM


Visibility: N/A

Pressure: 30.07 "Hg

Humidity: 65%

Dew point: 63 °F

Location of WaterfordLocation

Historic Weather in Waterford — Graph

°F

Waterford temperature yesterday

Maximum temperature yesterday: 72 °F (at 2:30 PM)
Minimum temperature yesterday: 61 °F (at 1:00 AM)
Average temperature yesterday: 65 °F

Past Weeks' High & Low Weather Summary

 TemperatureHumidityPressure
High75 °F (Jul 24, 1:00 PM)100% (Jul 10, 12:00 AM)30.33 "Hg (Jul 10, 12:00 AM)
Low52 °F (Jul 17, 2:00 AM)46% (Jul 13, 4:30 PM)29.74 "Hg (Jul 19, 5:00 AM)
Average62 °F87%30.02 "Hg
* Reported Jul 9 2:00 PM — Jul 24 2:00 PM, Waterford, Weather by CustomWeather, © 2014

Note: Actual official high and low records may vary slightly from our data, if they occured in-between our weather recording intervals... More about our weather records

Advertising

Waterford weather history for previous 24 hours

 ConditionsComfort  
Time TempWeatherWind HumidityBarometerVisibility
2:00 PM
Jul 24
75 °FScattered clouds.5 mph65%30.07 "HgN/A
1:30 PM73 °FBroken clouds.6 mph69%30.09 "HgN/A
1:00 PM75 °FBroken clouds.6 mph65%30.09 "HgN/A
12:30 PM73 °FScattered clouds.8 mph69%30.07 "HgN/A
12:00 PM72 °FPartly sunny.9 mph78%30.09 "HgN/A
11:30 AM70 °FBroken clouds.12 mph83%30.09 "HgN/A
11:00 AM68 °FPartly sunny.13 mph88%30.09 "HgN/A
10:30 AM66 °FScattered clouds.13 mph88%30.09 "HgN/A
10:00 AM66 °FScattered clouds.15 mph94%30.07 "HgN/A
9:30 AM64 °FLow clouds.15 mph94%30.07 "HgN/A
9:00 AM64 °FLow clouds.14 mph94%30.07 "HgN/A
8:30 AM63 °FPartly sunny.16 mph100%30.07 "HgN/A
8:00 AM63 °FLow clouds.15 mph100%30.07 "Hg6 mi
7:30 AM63 °FFog.15 mph94%30.07 "Hg1 mi
6:30 AM61 °FFog.10 mph94%30.07 "Hg2 mi
6:00 AM61 °FPassing clouds.9 mph94%30.07 "HgN/A
5:30 AM61 °FPassing clouds.9 mph94%30.07 "HgN/A
5:00 AM61 °FPassing clouds.8 mph94%30.07 "HgN/A
4:30 AM61 °FClear.7 mph94%30.07 "Hg10 mi
4:00 AM61 °FClear.8 mph94%30.07 "Hg10 mi
3:30 AM61 °FClear.9 mph94%30.09 "Hg10 mi
3:00 AM61 °FClear.9 mph94%30.09 "Hg10 mi
2:30 AM61 °FClear.8 mph94%30.09 "Hg10 mi
2:00 AM63 °FClear.7 mph88%30.09 "Hg10 mi
1:30 AM63 °FClear.8 mph94%30.09 "Hg10 mi
1:00 AM63 °FPassing clouds.7 mph88%30.09 "HgN/A
12:30 AM63 °FPassing clouds.6 mph94%30.09 "HgN/A
12:00 AM63 °FPassing clouds.3 mph88%30.09 "HgN/A
11:30 PM
Jul 23
61 °FPassing clouds.5 mph94%30.09 "HgN/A
11:00 PM61 °FPassing clouds.3 mph94%30.12 "HgN/A
10:30 PM61 °FFog.2 mph94%30.12 "HgN/A
10:00 PM63 °FFog.2 mph94%30.12 "HgN/A
9:30 PM64 °FPassing clouds.2 mph88%30.09 "HgN/A
9:00 PM64 °FPassing clouds.2 mph88%30.09 "HgN/A
8:00 PM68 °FPassing clouds.6 mph83%30.09 "HgN/A
7:30 PM68 °FPassing clouds.7 mph83%30.09 "HgN/A
7:00 PM70 °FPassing clouds.9 mph78%30.09 "HgN/A
6:30 PM70 °FScattered clouds.8 mph83%30.09 "HgN/A
6:00 PM70 °FScattered clouds.8 mph83%30.09 "HgN/A
5:30 PM70 °FScattered clouds.9 mph83%30.09 "HgN/A
5:00 PM70 °FScattered clouds.10 mph83%30.09 "HgN/A
4:30 PM70 °FScattered clouds.9 mph83%30.09 "HgN/A
4:00 PM72 °FScattered clouds.9 mph78%30.09 "HgN/A
3:30 PM72 °FPartly sunny.7 mph83%30.12 "HgN/A
3:00 PM70 °FPassing clouds.7 mph83%30.12 "HgN/A
2:30 PM72 °FPartly sunny.8 mph83%30.12 "HgN/A
2:00 PM70 °FPartly sunny.6 mph88%30.12 "HgN/A
Weather by CustomWeather, © 2014

See weather overviewHow to use our weather pages